Kezdőlap
METAR-TAF:

METAR-TAF

Repülőterek :

Creston, Iowa, Amerikai Egyesült Államok

földrajzi szélesség: 41-01N, földrajzi hosszúság: 094-22W, magasság: 394 m

Jelenlegi meteorológiai megfigyelések

A jelentés 27 perccel ezelõtt készült, 02:55 UTC
Szélcsend
Hőmérséklet -3°C
Páratartalom 68%
Légköri nyomás 1020 hPa
Látótávolság: 16.1 km
Derült ég

METAR: KCSQ 280255Z AUTO 00000KT 10SM CLR M03/M08 A3013 RMK AO2

Idő: 21:22 (03:22 UTC)


TAF: hiányzik

Meteorológiai megfigyelések és előrejelzések több, mint 4000 repülőtéren (METAR és TAF jelentéseket).

A térképen piros és sárga pontok jelzik az elérhető meteorológiai állomásokat.

Mozgassa az egeret a pont fölött, hogy megjelenjen az állomás neve.

Azután kattintson az időjárási megfigyelések és előrejelzések megtekintéséhez.

A térkép megváltoztatása: kattintson a fekete keresztel jelölt zöld gombra ráközelítéshez, a vonallal jelölt zöld gombra távolításhoz, vagy a zöld nyilakra a szomszédos térképek eléréséhez.


METAR-TAF: